Bigfork, MN

1:01 AM CDT on July 24, 2017 (GMT -0500)
Bigfork Municipal

Weather History for KFOZ - November, 2012

Change the Weather History Date:

Monday, November 5, 2012

  Actual Average (KGPZ) Record (KGPZ)
Temperature  
Mean Temperature 26 °F -  
Max Temperature 37 °F 40 °F 70 °F (1975)
Min Temperature 15 °F 23 °F -1 °F (1991)
Degree Days  
Heating Degree Days 39    
Moisture  
Dew Point 25 °F    
Average Humidity 81    
Maximum Humidity 93    
Minimum Humidity 70    
Precipitation  
Precipitation 0.00 in - - ()
Sea Level Pressure  
Sea Level Pressure 30.10 in    
Wind  
Wind Speed 3 mph (SSE)    
Max Wind Speed 12 mph    
Max Gust Speed -    
Visibility 9 miles    
Events Rain    
Averages and records for this station are not official NWS values.
T = Trace of Precipitation, MM = Missing Value Source: NWS Daily Summary

Daily Weather History Graph

Daily Weather History Graph

Search for Another Location

Airport or City:

Trip Planner

Search our weather history database for the weather conditions in past years. The results will help you decide how hot, cold, wet, or windy it might be!

Date:

Astronomy

Nov. 05, 2012 Rise Set
Actual Time 7:05 AM CST 4:49 PM CST
Civil Twilight 6:33 AM CST 5:22 PM CST
Nautical Twilight 5:56 AM CST 5:59 PM CST
Astronomical Twilight 5:20 AM CST 6:35 PM CST
Moon 10:28 PM CST (11/5) 12:26 PM CST (11/5)
Length of Visible Light 10h 49m
Length of Day
9h 43m
Waning Gibbous, 62% of the Moon is Illuminated
Nov 5
Waning Gibbous
Nov 6
Last Quarter
Nov 13
New
Nov 20
First Quarter
Nov 28
Full

Hourly Weather History & Observations

Time (CST) Temp. Windchill Dew Point Humidity Pressure Visibility Wind Dir Wind Speed Gust Speed Precip Events Conditions
12:13 AM 17.6 °F - 15.8 °F 93% 30.25 in 10.0 mi Calm Calm - N/A   Clear
12:33 AM 17.6 °F - 15.8 °F 93% 30.25 in 10.0 mi Calm Calm - N/A   Clear
12:53 AM 15.8 °F - 12.2 °F 86% 30.25 in 10.0 mi Calm Calm - N/A   Clear
1:13 AM 15.8 °F - 12.2 °F 86% 30.25 in 10.0 mi Calm Calm - N/A   Clear
1:33 AM 15.8 °F - 12.2 °F 86% 30.25 in 10.0 mi Calm Calm - N/A   Clear
1:53 AM 15.8 °F - 12.2 °F 86% 30.25 in 10.0 mi Calm Calm - N/A   Clear
2:13 AM 15.8 °F - 12.2 °F 86% 30.25 in 10.0 mi Calm Calm - N/A   Clear
2:33 AM 15.8 °F - 12.2 °F 86% 30.25 in 10.0 mi Calm Calm - N/A   Mostly Cloudy
2:53 AM 19.4 °F - 15.8 °F 86% 30.25 in 10.0 mi Calm Calm - N/A   Mostly Cloudy
3:13 AM 19.4 °F - 15.8 °F 86% 30.25 in 10.0 mi Calm Calm - N/A   Mostly Cloudy
3:33 AM 19.4 °F - 17.6 °F 93% 30.25 in 10.0 mi Calm Calm - N/A   Overcast
3:53 AM 21.2 °F - 19.4 °F 93% 30.24 in 10.0 mi Calm Calm - N/A   Overcast
4:13 AM 21.2 °F - 19.4 °F 93% 30.24 in 10.0 mi Calm Calm - N/A   Overcast
4:33 AM 21.2 °F - 19.4 °F 93% 30.24 in 10.0 mi Calm Calm - N/A   Overcast
4:53 AM 23.0 °F - 19.4 °F 86% 30.24 in 10.0 mi Calm Calm - N/A   Mostly Cloudy
5:13 AM 23.0 °F - 21.2 °F 93% 30.23 in 10.0 mi Calm Calm - N/A   Overcast
5:33 AM 24.8 °F - 21.2 °F 86% 30.23 in 10.0 mi Calm Calm - N/A   Overcast
5:53 AM 24.8 °F - 21.2 °F 86% 30.22 in 10.0 mi Calm Calm - N/A   Overcast
6:13 AM 24.8 °F - 21.2 °F 86% 30.23 in 10.0 mi Calm Calm - N/A   Overcast
6:33 AM 24.8 °F - 21.2 °F 86% 30.22 in 10.0 mi Calm Calm - N/A   Overcast
6:53 AM 24.8 °F - 21.2 °F 86% 30.22 in 10.0 mi Calm Calm - N/A   Overcast
7:13 AM 24.8 °F - 21.2 °F 86% 30.22 in 10.0 mi Calm Calm - N/A   Overcast
7:33 AM 24.8 °F - 21.2 °F 86% 30.22 in 10.0 mi Calm Calm - N/A   Overcast
7:53 AM 24.8 °F - 21.2 °F 86% 30.22 in 10.0 mi Calm Calm - N/A   Mostly Cloudy
8:13 AM 26.6 °F - 24.8 °F 93% 30.22 in 10.0 mi Calm Calm - N/A   Mostly Cloudy
8:33 AM 28.4 °F 24.6 °F 24.8 °F 86% 30.21 in 10.0 mi East 3.5 mph - N/A   Overcast
8:53 AM 28.4 °F 24.6 °F 26.6 °F 93% 30.21 in 10.0 mi ESE 3.5 mph - N/A   Overcast
9:13 AM 30.2 °F - 26.6 °F 86% 30.21 in 10.0 mi Calm Calm - N/A   Overcast
9:33 AM 30.2 °F 26.7 °F 26.6 °F 86% 30.20 in 10.0 mi SE 3.5 mph - N/A   Overcast
9:53 AM 32.0 °F 26.4 °F 26.6 °F 80% 30.19 in 10.0 mi SE 5.8 mph - N/A   Overcast
10:13 AM 33.8 °F 27.7 °F 26.6 °F 75% 30.19 in 10.0 mi SSE 6.9 mph - N/A   Overcast
10:33 AM 33.8 °F 29.6 °F 26.6 °F 75% 30.19 in 10.0 mi South 4.6 mph - N/A   Overcast
10:53 AM 33.8 °F 28.6 °F 26.6 °F 75% 30.19 in 10.0 mi South 5.8 mph - N/A   Overcast
11:13 AM 35.6 °F 29.9 °F 26.6 °F 70% 30.19 in 10.0 mi South 6.9 mph - N/A   Overcast
11:33 AM 35.6 °F 32.8 °F 26.6 °F 70% 30.18 in 10.0 mi South 3.5 mph - N/A   Overcast
11:53 AM 35.6 °F 31.7 °F 26.6 °F 70% 30.16 in 10.0 mi South 4.6 mph - N/A   Overcast
12:13 PM 35.6 °F 30.7 °F 26.6 °F 70% 30.16 in 10.0 mi SSE 5.8 mph - N/A   Overcast
12:33 PM 35.6 °F 30.7 °F 26.6 °F 70% 30.15 in 10.0 mi SSE 5.8 mph - N/A   Overcast
12:53 PM 35.6 °F 31.7 °F 26.6 °F 70% 30.13 in 10.0 mi SE 4.6 mph - N/A   Mostly Cloudy
1:13 PM 35.6 °F 29.9 °F 26.6 °F 70% 30.11 in 10.0 mi SSE 6.9 mph - N/A   Mostly Cloudy
1:33 PM 35.6 °F 29.2 °F 26.6 °F 70% 30.10 in 10.0 mi SSE 8.1 mph - N/A   Overcast
1:53 PM 35.6 °F 30.7 °F 26.6 °F 70% 30.09 in 10.0 mi SSE 5.8 mph - N/A   Mostly Cloudy
2:13 PM 35.6 °F 30.7 °F 26.6 °F 70% 30.08 in 10.0 mi SE 5.8 mph - N/A   Mostly Cloudy
2:33 PM 35.6 °F 31.7 °F 26.6 °F 70% 30.07 in 10.0 mi SSE 4.6 mph - N/A   Mostly Cloudy
2:53 PM 35.6 °F 29.9 °F 26.6 °F 70% 30.06 in 10.0 mi SSE 6.9 mph - N/A   Mostly Cloudy
3:13 PM 35.6 °F 30.7 °F 26.6 °F 70% 30.05 in 10.0 mi SSE 5.8 mph - N/A   Scattered Clouds
3:53 PM 35.6 °F 32.8 °F 26.6 °F 70% 30.04 in 10.0 mi South 3.5 mph - N/A   Mostly Cloudy
4:13 PM 35.6 °F 31.7 °F 26.6 °F 70% 30.04 in 10.0 mi SSE 4.6 mph - N/A   Overcast
4:33 PM 35.6 °F 30.7 °F 26.6 °F 70% 30.03 in 10.0 mi SSE 5.8 mph - N/A   Overcast
4:53 PM 35.6 °F 29.9 °F 26.6 °F 70% 30.02 in 10.0 mi SSE 6.9 mph - N/A   Overcast
5:13 PM 35.6 °F 29.9 °F 28.4 °F 75% 30.01 in 10.0 mi South 6.9 mph - N/A   Overcast
5:33 PM 35.6 °F 31.7 °F 28.4 °F 75% 29.99 in 10.0 mi SSE 4.6 mph - N/A   Overcast
5:53 PM 35.6 °F 29.9 °F 26.6 °F 70% 29.98 in 10.0 mi SSE 6.9 mph - N/A   Overcast
6:13 PM 35.6 °F 29.9 °F 26.6 °F 70% 29.97 in 10.0 mi South 6.9 mph - N/A   Overcast
6:33 PM 35.6 °F 31.7 °F 26.6 °F 70% 29.97 in 10.0 mi South 4.6 mph - N/A   Overcast
6:53 PM 35.6 °F 29.9 °F 28.4 °F 75% 29.96 in 10.0 mi South 6.9 mph - N/A   Overcast
7:13 PM 37.4 °F 30.8 °F 28.4 °F 70% 29.95 in 10.0 mi South 9.2 mph - N/A   Overcast
7:33 PM 37.4 °F 31.4 °F 30.2 °F 75% 29.94 in 10.0 mi South 8.1 mph - N/A   Overcast
7:53 PM 37.4 °F 30.8 °F 30.2 °F 75% 29.92 in 10.0 mi South 9.2 mph - N/A   Overcast
8:13 PM 37.4 °F 30.8 °F 30.2 °F 75% 29.91 in 10.0 mi SSE 9.2 mph - N/A   Overcast
8:33 PM 37.4 °F 29.8 °F 32.0 °F 81% 29.90 in 10.0 mi South 11.5 mph - N/A   Overcast
8:53 PM 37.4 °F 31.4 °F 32.0 °F 81% 29.89 in 7.0 mi South 8.1 mph - N/A   Overcast
9:13 PM 35.6 °F 29.2 °F 32.0 °F 87% 29.88 in 7.0 mi South 8.1 mph - N/A   Overcast
9:33 PM 37.4 °F 31.4 °F 33.8 °F 87% 29.88 in 7.0 mi South 8.1 mph - N/A   Overcast
9:53 PM 37.4 °F 30.8 °F 33.8 °F 87% 29.87 in 7.0 mi SSE 9.2 mph - N/A   Overcast
10:13 PM 37.4 °F 29.8 °F 33.8 °F 87% 29.85 in 5.0 mi South 11.5 mph - N/A   Overcast
10:33 PM 37.4 °F 31.4 °F 33.8 °F 87% 29.84 in 4.0 mi South 8.1 mph - N/A   Overcast
10:53 PM 37.4 °F 30.3 °F 33.8 °F 87% 29.82 in 3.0 mi SSE 10.4 mph - N/A   Overcast
11:13 PM 35.6 °F 29.2 °F 33.8 °F 93% 29.81 in 2.5 mi SSE 8.1 mph - N/A   Overcast
11:33 PM 35.6 °F 29.2 °F 33.8 °F 93% 29.80 in 2.5 mi South 8.1 mph - N/A Rain Light Rain
11:53 PM 35.6 °F 28.0 °F 33.8 °F 93% 29.79 in 2.5 mi South 10.4 mph - N/A Rain Rain